Regional Weather Roundup
Issued by NWS

Home | Current Version | Previous Version | Text Only | Print | Product List | Glossary Off
Versions: 1 2 3 4 5 6 7 8 9 10 11 12 13 14 15 16 17 18 19 20 21 22 23 24 25 26 27 28 29 30 31 32 33 34 35 36 37 38 39 40 41 42 43 44 45 46 47 48 49 50

000
ASUS44 KMEG 161310
RWRTN
TENNESSEE HOURLY STATE WEATHER ROUNDUP
NATIONAL WEATHER SERVICE MEMPHIS TN
800 AM CDT MON OCT 16 2017

TNZ002-004-019-021-049-052-054-088>092-161400-
WEST TENNESSEE

CITY           SKY/WX    TMP DP  RH WIND       PRES   REMARKS
MEMPHIS INTL   PTCLDY    51  44  77 NE8       30.34R
NWS MEMPHIS      N/A     50 N/A N/A MISG        N/A
JACKSON        SUNNY     49  45  86 N9        30.35R
DYERSBURG      PTCLDY    48  44  86 N5        30.36S
UNION CITY     SUNNY     45  43  93 N3        30.35R
PARIS          SUNNY     46  43  87 N6        30.33R
HUNTINGDON     SUNNY     46  45  93 N5        30.33R
SELMER         SUNNY     46  45  93 NE5       30.31R
SAVANNAH       SUNNY     46  46 100 N5        30.31R
$$

TNZ008-025-027-028-033-062-065-066-161400-
NORTH MIDDLE TENNESSEE

CITY           SKY/WX    TMP DP  RH WIND       PRES   REMARKS
NASHVILLE      PTSUNNY   50  43  77 N10       30.31R
PORTLAND       SUNNY     48  45  87 N7        30.31R
CLARKSVILLE    MOSUNNY   47  42  83 N8        30.33R
SMYRNA         PTSUNNY   52  44  74 N12       30.31R
CROSSVILLE     MOSUNNY   48  39  71 N8        30.25R
$$

TNZ061-075-076-078-094-096-097-161400-
SOUTH MIDDLE TENNESSEE

CITY           SKY/WX    TMP DP  RH WIND       PRES   REMARKS
TULLAHOMA      SUNNY     48  39  71 N9        30.26S
WINCHESTER     PTSUNNY   48  43  81 N9          N/A
MCMINNVILLE    SUNNY     50  43  76 N8        30.27R
COLUMBIA       SUNNY     48  45  87 N5        30.29R
SHELBYVILLE    SUNNY     50  45  81 N7        30.28R
$$

TNZ017-018-042-046-047-161400-
NORTHEAST TENNESSEE

CITY           SKY/WX    TMP DP  RH WIND       PRES   REMARKS
TRI CITIES     CLOUDY    52  45  77 N6        30.21R
ELIZABETHTON   CLOUDY    52  45  76 VRB3      30.20R
$$

TNZ012-013-036-069-073-074-161400-
CENTRAL EAST TENNESSEE

CITY           SKY/WX    TMP DP  RH WIND       PRES   REMARKS
KNOXVILLE      PTSUNNY   52  46  80 N10       30.23R
OAK RIDGE      MOSUNNY   50  45  83 CALM      30.25R
GATLINBURG     CLOUDY    52  46  82 NW6       30.23R
MORRISTOWN     CLOUDY    52  43  71 N7G14     30.22R
JACKSBORO      CLOUDY    52  43  71 NE5       30.29R
$$

TNZ083-085-099-161400-
SOUTHEAST TENNESSEE

CITY           SKY/WX    TMP DP  RH WIND       PRES   REMARKS
CHATTANOOGA    PTSUNNY   52  44  74 N13       30.24R
DAYTON         SUNNY     50  46  87 VRB3      30.24R
$$

SKY/WX REPORTED AS FAIR MEANS FEW OR NO CLOUDS BELOW
12 THOUSAND FEET.





USA.gov is the U.S. government's official web portal to all federal, state and local government web resources and services.